Location: Gollag?dem
(16.8053°N, 80.8024°E)
Time: 16:52:19
(UTC+00:00)

Meteor 1-26 Rocket - Pass Details

Date: 13 August 2020
Orbit: 809 x 926 km, 81.3° (Epoch: 18 September)

Event Time Altitude Azimuth Distance (km) Brightness Sun altitude
Rises 13:56:50 0° 352° (N) 3,337 7.7 -13.1°
Reaches altitude 10° 13:59:14 10° 351° (N) 2,397 7.0 -13.7°
Maximum altitude 14:04:36 78° 266° (W) 829 4.2 -14.9°
Drops below altitude 10° 14:09:59 10° 179° (S) 2,389 6.3 -16.1°
Sets 14:12:22 0° 178° (S) 3,326 7.1 -16.6°
